[[{"header":{"parameterUnit":"m.s-1","parameterCategory":1,"la1":30.2991,"la2":30.254,"lo1":-89.0895,"lo2":-89.0444,"dy":0.0017,"dx":0.0017,"nx":28,"ny":28,"refTime":"2023-10-20T09:00:00:Z","depth":0,"parameterNumber":2,"parameterNumberName":"U-component_of_WINDS"},"data":[0,0,0,0,0,0,0,0,0,0,0,0,0,0,0,0,0,0,0,0,0,0,0,0,0,0,0,0,0,0,0,0,0,0,0,0,0,0,0,0,0,0,0,0,0,0,0,0,0,0,0,0,0,0,0,0,0,0,2.258,2.2581,0,2.2599,2.2599,2.2599,2.2502,2.2499,2.2497,2.2494,2.2514,2.2517,2.252,0,0,0,0,0,0,0,0,0,0,0,0,0,2.2464,2.2467,2.258,2.2581,2.2581,2.2599,2.2599,2.2599,2.2503,2.2499,2.2496,2.2493,2.2513,2.2517,2.2521,0,0,0,0,0,0,0,0,0,0,0,0,0,2.2502,2.2468,2.258,2.2535,2.2531,2.2599,2.2599,2.2599,2.2503,2.2499,2.2495,2.2491,2.2512,2.2517,2.2521,2.2634,0,0,2.2536,2.2538,0,0,0,0,0,0,0,0,2.25,2.2506,2.2541,2.2538,2.2534,2.2544,2.2565,2.2611,2.2504,2.2514,2.2494,2.2489,2.2528,2.2531,2.2543,2.2635,2.2636,2.2536,2.2539,2.2541,2.2542,0,0,0,0,0,0,0,2.2498,2.2505,2.2588,2.2542,2.2537,2.2514,2.2515,2.2573,2.2544,2.2513,2.2506,2.2509,2.2525,2.2539,2.2543,2.2636,2.2536,2.254,2.2543,2.2545,2.2822,2.2826,0,0,0,0,0,0,2.2501,2.2504,2.2587,2.2588,2.2506,2.252,2.2521,2.2545,2.2543,2.2539,2.2513,2.2505,2.2533,2.2538,2.2544,2.2676,2.2541,2.2545,2.2548,2.2817,2.2823,2.2828,0,0,0,0,0,0,2.2499,2.2509,2.2586,2.2544,2.2552,2.2526,2.2554,2.2547,2.2562,2.2543,2.2538,2.2533,2.253,2.2537,2.2612,2.2675,2.2547,2.2552,2.2812,2.2819,2.2825,2.2941,0,0,0,0,0,0,2.2496,2.2509,2.2551,2.2546,2.2555,2.2654,2.2558,2.2551,2.257,2.2559,2.256,2.2556,2.2527,2.2606,2.2617,2.2679,2.2555,2.2806,2.2815,2.2823,2.2931,2.2951,2.2967,0,0,0,0,0,2.2492,2.2583,2.2553,2.2564,2.2606,2.2658,2.2663,2.2627,2.2575,2.2617,2.2606,2.2556,2.2667,2.2614,2.2626,2.2691,2.2802,2.2813,2.2823,2.2923,2.2947,2.2967,0,0,0,0,0,0,2.2596,2.2581,2.2548,2.264,2.2651,2.2642,2.2694,2.2654,2.268,2.2669,2.2624,2.2625,2.2709,2.2707,2.2649,2.28,2.2725,2.2738,2.2798,2.282,2.2838,2.2836,2.2559,0,0,0,0,0,2.263,2.2672,2.2657,2.274,2.2747,2.272,2.2741,2.2712,2.2722,2.2726,2.272,2.2732,2.2769,2.2795,2.2828,2.2931,2.293,2.2981,2.2999,2.3014,2.3026,2.3081,2.3104,2.2861,2.2861,2.2861,0,0,2.2699,2.2697,2.2726,2.276,2.2765,2.2811,2.2724,2.2776,2.281,2.2734,2.2805,2.2801,2.2812,2.2902,2.2941,2.2903,2.3093,2.3027,2.3039,2.3043,2.3094,2.3117,2.3137,2.2868,2.2867,2.2866,0,0,2.285,2.2852,2.2921,2.2928,2.2937,2.2919,2.2936,2.2933,2.2927,2.2998,2.2942,2.2982,2.3047,2.3057,2.3071,2.3227,2.3183,2.3239,2.3333,2.3388,2.3407,2.3424,2.348,2.35,2.3251,2.3252,2.3252,0,2.2935,2.3001,2.2962,2.3018,2.3035,2.2969,2.3039,2.3048,2.3068,2.3082,2.3039,2.312,2.3122,2.3214,2.3252,2.3265,2.3284,2.3239,2.3407,2.3424,2.3439,2.3492,2.3513,2.3258,2.3258,2.3257,2.3256,0,2.3107,2.3154,2.3209,2.3229,2.3253,2.3316,2.3286,2.3315,2.3285,2.3272,2.3345,2.3346,2.3378,2.3398,2.337,2.3487,2.3463,2.3415,2.3338,2.3469,2.3518,2.3538,2.3268,2.3266,2.3264,2.3262,0,0,2.3321,2.332,2.3341,2.335,2.3356,2.3392,2.3453,2.3485,2.351,2.3527,2.3577,2.3634,2.359,2.3606,2.3578,2.3626,2.375,2.3572,2.3571,2.3605,2.388,2.3916,2.394,2.3722,2.3725,2.3728,2.3879,0,2.3468,2.3571,2.3538,2.3642,2.3686,2.3625,2.3678,2.3688,2.3678,2.3714,2.3702,2.3744,2.3682,2.3691,2.3736,2.3726,2.3805,2.3715,2.3768,2.3771,2.3767,2.3965,2.4003,2.4146,2.3898,2.3901,2.3904,0,2.3653,2.3677,2.3786,2.3786,2.3803,2.3851,2.3878,2.3913,2.3924,2.3913,2.3932,2.3894,2.3955,2.3879,2.3963,2.3902,2.3922,2.3921,2.3925,2.3929,2.3845,2.3974,2.419,2.4211,2.3933,2.3931,2.3929,0,2.3799,2.3859,2.3932,2.3941,2.3943,2.3978,2.3981,2.3987,2.4009,2.4033,2.4047,2.4078,2.4095,2.4121,2.4093,2.4041,2.4181,2.4103,2.4174,2.4175,2.4205,2.4204,2.4428,2.422,2.4219,2.4219,2.4219,0,2.3966,2.4035,2.3997,2.4042,2.4118,2.408,2.4157,2.4152,2.4159,2.4203,2.4152,2.4194,2.4156,2.4195,2.4174,2.4246,2.4255,2.4248,2.4242,2.4252,2.4253,2.4264,2.4254,2.4225,2.4223,2.4222,2.4221,0,2.4141,2.4118,2.4194,2.419,2.419,2.4247,2.4243,2.4285,2.4272,2.4328,2.4339,2.4318,2.4362,2.4337,2.4382,2.4368,2.4462,2.4442,2.4458,2.4453,2.4525,2.4519,2.4764,2.4794,2.4568,2.457,2.4572,0,2.4249,2.4301,2.4303,2.4328,2.4334,2.4376,2.4398,2.4363,2.4388,2.4405,2.4446,2.4485,2.4514,2.4587,2.4576,2.4611,2.4591,2.4675,2.4596,2.4605,2.4592,2.4589,2.4594,2.469,2.4693,2.4695,2.4697,0,2.4443,2.443,2.4463,2.4493,2.4521,2.4543,2.4561,2.4585,2.4551,2.4582,2.4626,2.4649,2.4695,2.4735,2.4765,2.4768,2.4728,2.4722,2.474,2.4751,2.4758,2.4756,2.4501,2.4716,2.4714,2.4713,2.4712,2.4711,2.4587,2.4631,2.4639,2.4678,2.4689,2.4707,2.4746,2.4739,2.4774,2.4809,2.4787,2.4839,2.485,2.4885,2.4894,2.4935,2.4901,2.4928,2.4934,2.4941,2.4951,2.4753,2.494,2.494,2.4939,2.4939,2.4938,0,2.4778,2.4781,2.4818,2.4845,2.4877,2.4836,2.4854,2.4883,2.493,2.4943,2.4973,2.5025,2.5064,2.5057,2.5092,2.5126,2.5109,2.5137,2.5134,2.5135,2.4979,2.496,2.5151,2.5151,2.5151,2.515,2.515,2.515,2.4881,2.4953,2.4941,2.5018,2.502,2.507,2.5084,2.5102,2.5112,2.5172,2.5204,2.5199,2.5205,2.5241,2.5275,2.5272,2.5288,2.5323,2.5313,2.5167,2.5146,2.5126,2.5108,2.5326,2.5327,2.5466,2.5467,2.5468]},{"header":{"parameterUnit":"m.s-1","parameterCategory":1,"la1":30.2991,"la2":30.254,"lo1":-89.0895,"lo2":-89.0444,"dy":0.0017,"dx":0.0017,"nx":28,"ny":28,"refTime":"2023-10-20T09:00:00:Z","depth":0,"parameterNumber":3,"parameterNumberName":"V-component_of_WINDS"},"data":[0,0,0,0,0,0,0,0,0,0,0,0,0,0,0,0,0,0,0,0,0,0,0,0,0,0,0,0,0,0,0,0,0,0,0,0,0,0,0,0,0,0,0,0,0,0,0,0,0,0,0,0,0,0,0,0,0,0,0.9473,0.9473,0,0.9513,0.9513,0.9514,0.9498,0.9497,0.9496,0.9495,0.9537,0.9539,0.9541,0,0,0,0,0,0,0,0,0,0,0,0,0,0.9384,0.9386,0.9473,0.9473,0.9474,0.9513,0.9513,0.9514,0.9498,0.9497,0.9496,0.9495,0.9537,0.9539,0.9541,0,0,0,0,0,0,0,0,0,0,0,0,0,0.9423,0.9387,0.9473,0.9471,0.9471,0.9513,0.9513,0.9514,0.9499,0.9497,0.9496,0.9495,0.9536,0.9539,0.9542,0.9588,0,0,0.9551,0.9552,0,0,0,0,0,0,0,0,0.9421,0.9427,0.9471,0.9471,0.9471,0.9499,0.9497,0.9539,0.9499,0.9488,0.9495,0.9494,0.9526,0.953,0.954,0.959,0.9592,0.9551,0.9553,0.9554,0.9555,0,0,0,0,0,0,0,0.9419,0.9425,0.9489,0.9471,0.9472,0.9468,0.9472,0.9505,0.9514,0.9489,0.9488,0.9493,0.9526,0.9537,0.9541,0.9592,0.9551,0.9554,0.9556,0.9557,0.9683,0.9684,0,0,0,0,0,0,0.9416,0.9423,0.9488,0.949,0.9442,0.9471,0.9476,0.9492,0.9514,0.9516,0.9494,0.9492,0.9533,0.9538,0.9542,0.9598,0.9554,0.9557,0.9559,0.9681,0.9683,0.9685,0,0,0,0,0,0,0.9414,0.9422,0.9486,0.9456,0.9464,0.9474,0.9492,0.9493,0.9505,0.9518,0.9519,0.9504,0.9532,0.9538,0.9577,0.96,0.9558,0.9561,0.9679,0.9682,0.9684,0.971,0,0,0,0,0,0,0.9411,0.9421,0.9438,0.9457,0.9466,0.9519,0.9494,0.9495,0.951,0.9507,0.9528,0.953,0.9531,0.9572,0.958,0.9603,0.9563,0.9677,0.968,0.9683,0.9707,0.9713,0.9718,0,0,0,0,0,0.9408,0.9445,0.9439,0.9447,0.9488,0.9521,0.9526,0.9527,0.9512,0.9529,0.9538,0.9529,0.9596,0.9577,0.9585,0.9609,0.9676,0.9679,0.9683,0.9705,0.9712,0.9718,0,0,0,0,0,0,0.9429,0.9447,0.9441,0.9485,0.9501,0.9518,0.9541,0.9534,0.9556,0.9553,0.9554,0.9558,0.9598,0.9607,0.9586,0.9655,0.9634,0.9639,0.9648,0.9655,0.966,0.9657,0.9566,0,0,0,0,0,0.9439,0.9464,0.9478,0.9515,0.9523,0.9531,0.9545,0.9544,0.9562,0.9569,0.958,0.9598,0.9622,0.9639,0.9663,0.9709,0.9713,0.9729,0.9735,0.9739,0.9744,0.9769,0.9777,0.9696,0.9696,0.9696,0,0,0.9459,0.9472,0.9488,0.9519,0.9532,0.9558,0.9537,0.9565,0.9585,0.9573,0.961,0.9619,0.9639,0.9681,0.9701,0.969,0.9767,0.9744,0.9747,0.9749,0.9773,0.9781,0.9788,0.9698,0.9698,0.9698,0,0,0.9509,0.9521,0.9553,0.9566,0.9586,0.959,0.9598,0.9616,0.9621,0.9658,0.965,0.9674,0.9717,0.9731,0.9744,0.98,0.9792,0.9807,0.9836,0.986,0.9867,0.9872,0.9892,0.99,0.9812,0.9812,0.9812,0,0.9532,0.9571,0.9571,0.96,0.9614,0.9605,0.9637,0.965,0.9677,0.9687,0.9675,0.9728,0.9741,0.9787,0.98,0.9811,0.982,0.9805,0.9866,0.9871,0.9877,0.9896,0.9903,0.9814,0.9813,0.9813,0.9813,0,0.9598,0.9625,0.9649,0.9674,0.9691,0.9722,0.9727,0.9744,0.9742,0.9748,0.9786,0.9801,0.9827,0.9838,0.9836,0.9884,0.9877,0.9865,0.9844,0.9886,0.9904,0.9911,0.9816,0.9815,0.9815,0.9815,0,0,0.9663,0.9688,0.9696,0.9708,0.9729,0.975,0.978,0.9806,0.9821,0.9839,0.9865,0.9902,0.9891,0.9906,0.9906,0.9927,0.9971,0.9913,0.9914,0.9924,1.0025,1.0033,1.0042,0.9966,0.9967,0.9969,1.0023,0,0.9715,0.9768,0.9769,0.9818,0.9843,0.9834,0.9861,0.9877,0.9883,0.9906,0.9913,0.9939,0.9923,0.9932,0.9953,0.9961,0.9991,0.9957,0.9991,0.9992,0.9986,1.0051,1.0061,1.0111,1.003,1.0031,1.0032,0,0.9783,0.9803,0.9855,0.9872,0.9883,0.9907,0.993,0.9952,0.997,0.9973,0.9989,0.9986,1.0017,0.9994,1.0038,1.0015,1.0029,1.0035,1.0037,1.004,1.0015,1.0057,1.0128,1.0135,1.0043,1.0042,1.0042,0,0.9825,0.9866,0.9902,0.9912,0.9933,0.995,0.9959,0.9976,0.9991,1.0012,1.0022,1.0046,1.006,1.0079,1.0082,1.0065,1.0126,1.0104,1.013,1.013,1.0144,1.0143,1.0218,1.0152,1.0152,1.0152,1.0152,0,0.9883,0.9915,0.9921,0.9943,0.9979,0.998,1.0015,1.0023,1.0038,1.0062,1.0056,1.0079,1.0081,1.0105,1.0108,1.0144,1.015,1.0154,1.0154,1.0154,1.0154,1.0164,1.016,1.0154,1.0153,1.0153,1.0153,0,0.9937,0.9942,0.9981,0.9997,1.0002,1.0028,1.0042,1.0064,1.0069,1.01,1.0107,1.0116,1.0144,1.0149,1.0181,1.0183,1.0226,1.0223,1.022,1.022,1.0246,1.0244,1.033,1.0342,1.0268,1.0269,1.0269,0,0.9974,0.9998,1.0017,1.0033,1.0043,1.0068,1.0084,1.0085,1.0102,1.0124,1.0143,1.017,1.0191,1.0236,1.0246,1.0271,1.0268,1.0297,1.0272,1.0271,1.0269,1.0268,1.027,1.0302,1.0302,1.0303,1.0304,0,1.0039,1.004,1.0063,1.0087,1.0105,1.0124,1.0142,1.0155,1.0159,1.0178,1.0206,1.0222,1.0255,1.0282,1.0307,1.0317,1.0312,1.0311,1.0319,1.032,1.0317,1.0319,1.0233,1.0309,1.0309,1.0308,1.0308,1.0308,1.0086,1.0107,1.0124,1.0149,1.0163,1.0179,1.02,1.0209,1.0232,1.0259,1.0258,1.0289,1.0306,1.0339,1.0351,1.0375,1.0366,1.0377,1.038,1.0382,1.0385,1.0313,1.038,1.038,1.0379,1.0379,1.0379,0,1.0151,1.0161,1.0184,1.0209,1.0229,1.0222,1.0241,1.0258,1.0285,1.0302,1.0323,1.0355,1.0381,1.0393,1.0419,1.0436,1.0434,1.0443,1.0442,1.0444,1.0392,1.0383,1.0444,1.0444,1.0444,1.0444,1.0444,1.0444,1.0187,1.0223,1.0226,1.0268,1.0279,1.0308,1.032,1.0336,1.0349,1.0385,1.0406,1.0414,1.0429,1.0455,1.0479,1.0482,1.0492,1.0502,1.0504,1.0454,1.0448,1.0442,1.0433,1.0504,1.0504,1.0554,1.0555,1.0555]}]]